Vorticity
-7 8 11 -18 27 8 18 32 47 40 33 56 22 15 9 3 2 37 35 18 -6 17 -55 -19 29 27 -1 8 7 6 6 5 4 5 4 3 4 1 5 3 3 0 7
2 22 1 10 30 6 15 51 16 28 42 46 22 18 11 -0 -1 4 35 20 21 -9 39 7 28 43 4 11 2 11 4 2 2 5 3 4 4 2 3 -6 -1 20 3
5 9 7 5 12 1 -12 62 21 22 36 42 17 23 15 15 9 -3 36 33 20 14 -25 4 -49 -16 32 0 -1 4 -0 4 9 7 5 4 2 1 -4 -5 15 21 23
20 11 7 21 7 45 20 1 27 14 11 35 24 23 13 8 29 13 -0 40 40 27 -4 11 -5 38 -43 25 9 1 10 2 2 4 4 9 14 3 1 3 11 30 25
24 21 9 -3 22 19 31 41 25 -17 19 2 38 14 15 6 -9 8 45 48 27 34 18 15 3 5 -6 20 24 4 1 11 -0 5 5 31 35 26 53 -2 3 -13 9
8 21 22 8 13 6 4 13 6 51 53 34 53 37 55 43 20 -3 8 45 -1 14 16 45 6 9 19 44 23 -13 -10 -16 -24 30 -16 -13 -51 -28 34 20 -5 24 -9
4 10 13 17 24 6 24 21 17 13 -2 30 33 38 25 38 25 -15 -21 38 20 20 -13 -4 39 -14 31 2 4 -4 31 5 4 21 2 3 -8 13 2 -21 -39 -10 1
4 13 8 3 9 11 -3 3 3 14 8 20 3 -1 34 13 36 2 8 -3 -0 8 -5 -1 23 18 25 31 47 24 45 -18 -9 20 16 40 2 22 -17 35 41 4 20
8 7 8 7 6 2 3 4 7 8 9 9 4 11 4 21 47 52 48 41 28 21 6 23 41 31 23 23 15 32 25 37 22 5 47 18 16 29 8 17 21 15 17
7 10 3 6 7 5 6 4 3 3 3 8 2 3 5 5 7 6 2 2 19 22 47 17 33 8 10 12 3 23 1 11 11 16 11 30 17 4 6 16 6 12 -9
8 6 4 3 2 2 3 5 3 0 -2 2 3 7 6 4 5 8 5 -0 1 3 5 5 3 0 4 5 7 6 9 13 15 10 17 17 19 15 12 12 7 12 -5
11 9 6 6 4 2 2 1 -1 0 0 5 5 4 -0 0 3 3 4 5 11 10 10 4 -2 -2 1 4 3 1 5 1 -1 2 7 4 -0 2 5 8 11 13 13
8 12 11 10 7 8 5 4 3 4 3 8 8 5 4 4 3 2 3 2 1 2 1 3 3 5 5 2 1 7 11 7 9 11 9 2 12 6 3 3 2 1 4
8 13 12 9 9 6 4 4 5 3 3 8 8 7 2 3 4 4 3 3 4 0 1 2 2 3 6 9 10 14 12 12 10 10 9 9 9 11 9 12 10 4 1
9 10 10 9 7 5 6 5 3 4 6 8 5 4 3 4 3 3 3 4 6 6 7 8 8 10 12 13 11 8 9 9 8 8 8 7 6 7 8 8 9 12 12
8 8 7 7 8 7 5 3 2 5 8 7 6 5 6 7 7 8 8 8 8 10 7 7 8 9 9 8 6 7 7 6 6 6 6 7 7 8 8 5 2 5 6
9 7 8 6 3 2 2 3 5 7 5 4 5 5 6 7 6 5 6 8 9 9 6 7 5 4 7 9 9 8 8 7 8 8 6 5 6 7 8 7 9 7 7
6 5 4 4 8 6 6 8 6 3 5 7 6 5 5 5 5 3 3 4 8 10 9 6 7 7 7 6 6 6 5 6 6 7 8 9 9 7 7 7 8 8 9
4 6 7 3 8 9 8 6 5 6 6 4 5 6 4 6 8 8 7 7 7 5 4 4 6 8 8 7 7 7 7 8 9 13 15 15 15 16 18 18 20 21 18
6 5 6 10 10 8 4 5 5 4 4 4 6 5 5 4 6 8 9 6 4 5 6 7 8 6 5 5 8 15 25 35 39 41 40 41 41 41 44 42 37 30 33
5 7 8 8 6 5 6 6 6 6 5 6 6 7 9 11 11 8 6 5 5 6 5 5 6 9 12 20 25 30 29 24 19 15 15 20 23 24 26 26 27 28 29
8 9 8 6 6 7 6 5 4 5 6 7 7 8 9 8 7 6 7 7 7 8 9 11 20 29 33 30 25 21 20 22 25 25 23 22 21 20 22 22 21 21 22
6 6 8 7 7 6 4 5 6 7 9 9 9 8 7 7 7 7 8 10 13 19 27 32 32 25 19 20 22 22 20 18 18 19 19 21 21 21 22 23 22 19 18
8 9 8 7 5 5 5 8 11 12 11 7 6 9 7 5 9 12 16 22 27 27 23 16 15 20 23 22 18 16 17 19 21 22 22 22 22 21 21 20 23 19 15
9 8 4 5 6 8 11 12 11 7 5 8 9 5 8 13 17 21 26 26 20 14 15 19 20 17 15 14 15 17 18 18 17 16 17 18 20 17 16 19 19 22 18
4 5 7 9 13 13 10 7 6 8 10 7 8 13 18 21 26 25 18 14 15 21 22 19 16 15 17 20 20 18 17 17 17 18 17 18 18 17 17 17 16 18 18
Height
5563 5556 5548 5539 5527 5519 5505 5487 5475 5473 5476 5485 5502 5515 5529 5544 5554 5561 5572 5581 5595 5605 5612 5619 5629 5635 5642 5648 5654 5660 5664 5669 5675 5683 5687 5688 5690 5692 5696 5698 5701 5702 5705
5559 5551 5543 5533 5524 5514 5501 5485 5481 5479 5480 5485 5500 5513 5525 5538 5549 5556 5562 5569 5583 5596 5608 5617 5622 5626 5630 5637 5642 5647 5650 5657 5664 5672 5676 5677 5679 5681 5683 5686 5690 5691 5693
5557 5549 5542 5532 5522 5514 5505 5492 5486 5485 5488 5495 5504 5513 5523 5534 5544 5551 5554 5560 5571 5584 5596 5606 5609 5613 5621 5627 5632 5634 5637 5645 5653 5658 5664 5666 5666 5669 5672 5672 5676 5678 5681
5555 5549 5543 5535 5524 5513 5506 5503 5495 5494 5499 5503 5510 5517 5524 5532 5540 5548 5552 5554 5564 5577 5588 5596 5598 5605 5604 5617 5621 5623 5626 5632 5638 5644 5647 5652 5654 5655 5656 5659 5662 5666 5669
5556 5549 5544 5539 5530 5521 5512 5506 5502 5504 5508 5509 5513 5517 5524 5530 5536 5544 5547 5550 5559 5567 5578 5583 5590 5592 5600 5603 5601 5609 5611 5618 5623 5627 5630 5633 5637 5633 5641 5646 5649 5652 5655
5557 5551 5544 5538 5533 5528 5521 5515 5510 5507 5506 5508 5506 5516 5524 5522 5532 5539 5543 5549 5551 5559 5567 5575 5581 5584 5588 5588 5593 5597 5603 5606 5605 5610 5613 5617 5621 5622 5628 5629 5628 5634 5640
5556 5552 5545 5539 5535 5530 5524 5519 5517 5514 5514 5514 5513 5512 5515 5520 5526 5531 5535 5539 5547 5553 5558 5563 5569 5572 5574 5576 5581 5584 5585 5588 5592 5595 5600 5603 5606 5608 5613 5611 5615 5622 5625
5555 5551 5547 5541 5537 5533 5529 5527 5524 5521 5519 5517 5519 5519 5513 5518 5523 5527 5529 5533 5539 5543 5548 5553 5557 5561 5561 5561 5565 5569 5571 5574 5578 5581 5583 5587 5589 5595 5596 5597 5598 5603 5607
5551 5549 5546 5543 5540 5536 5533 5532 5531 5528 5525 5523 5520 5520 5519 5516 5522 5522 5523 5527 5533 5536 5540 5546 5548 5548 5550 5551 5553 5554 5556 5559 5562 5565 5565 5569 5573 5574 5576 5576 5580 5584 5586
5546 5545 5543 5541 5539 5537 5535 5534 5533 5532 5532 5530 5528 5529 5527 5525 5522 5519 5518 5521 5525 5530 5533 5535 5537 5541 5540 5541 5540 5541 5543 5545 5546 5547 5549 5552 5555 5556 5559 5559 5561 5564 5567
5540 5540 5539 5538 5537 5536 5535 5534 5534 5534 5533 5532 5530 5529 5529 5526 5523 5518 5519 5521 5524 5528 5530 5530 5532 5533 5533 5534 5535 5534 5532 5533 5533 5534 5537 5538 5539 5540 5542 5545 5545 5547 5550
5534 5534 5534 5534 5534 5533 5532 5531 5531 5530 5530 5530 5529 5528 5526 5521 5518 5516 5517 5519 5521 5522 5523 5524 5524 5524 5524 5525 5525 5524 5523 5524 5524 5525 5526 5526 5526 5527 5529 5531 5531 5531 5532
5528 5528 5528 5528 5528 5528 5527 5527 5526 5525 5524 5523 5521 5520 5519 5517 5515 5513 5512 5512 5513 5515 5515 5514 5512 5511 5510 5509 5509 5508 5508 5509 5509 5509 5508 5509 5509 5509 5511 5512 5513 5514 5514
5522 5522 5522 5522 5521 5521 5521 5520 5519 5517 5515 5513 5511 5509 5507 5505 5504 5503 5502 5502 5501 5500 5499 5498 5498 5497 5496 5495 5493 5491 5490 5489 5489 5489 5489 5488 5489 5489 5488 5488 5489 5491 5492
5515 5517 5517 5517 5515 5515 5514 5512 5510 5508 5507 5505 5503 5501 5500 5498 5496 5493 5492 5489 5488 5486 5485 5482 5479 5475 5473 5473 5472 5473 5473 5472 5471 5470 5469 5468 5467 5466 5464 5464 5464 5464 5465
5510 5510 5511 5510 5509 5508 5506 5505 5504 5501 5498 5496 5493 5491 5489 5487 5485 5483 5482 5480 5478 5477 5473 5470 5468 5465 5462 5459 5454 5451 5448 5445 5445 5444 5444 5444 5443 5441 5440 5439 5439 5438 5439
5505 5505 5505 5504 5502 5501 5499 5497 5494 5492 5490 5487 5483 5479 5475 5472 5470 5468 5466 5463 5460 5456 5451 5447 5444 5442 5440 5437 5433 5430 5426 5422 5419 5417 5415 5414 5412 5409 5409 5408 5409 5408 5408
5499 5498 5498 5496 5495 5493 5491 5489 5485 5482 5477 5474 5471 5467 5462 5456 5450 5444 5439 5434 5432 5432 5431 5427 5422 5414 5408 5404 5400 5398 5394 5392 5389 5387 5384 5381 5379 5377 5374 5374 5375 5376 5376
5491 5491 5489 5488 5486 5483 5480 5477 5473 5469 5465 5460 5455 5450 5445 5439 5435 5431 5426 5421 5416 5410 5402 5393 5387 5383 5380 5375 5370 5365 5361 5357 5353 5349 5346 5342 5339 5338 5335 5335 5335 5335 5337
5483 5482 5480 5477 5474 5470 5467 5463 5460 5455 5450 5445 5440 5436 5430 5422 5413 5405 5399 5391 5382 5372 5364 5358 5353 5347 5342 5335 5328 5322 5316 5310 5306 5302 5300 5298 5297 5296 5295 5293 5292 5293 5293
5473 5470 5467 5464 5460 5456 5451 5446 5442 5438 5433 5428 5422 5415 5408 5403 5396 5389 5381 5373 5363 5354 5343 5333 5322 5313 5305 5297 5290 5285 5281 5276 5273 5270 5265 5263 5262 5260 5262 5263 5263 5263 5264
5464 5460 5456 5451 5447 5442 5437 5433 5428 5423 5417 5411 5404 5396 5388 5381 5373 5365 5356 5348 5338 5329 5321 5312 5302 5294 5284 5276 5269 5264 5258 5253 5248 5244 5240 5238 5235 5233 5235 5236 5236 5235 5237
5453 5449 5444 5439 5434 5430 5425 5419 5412 5405 5397 5389 5382 5373 5364 5355 5346 5336 5327 5317 5307 5297 5288 5279 5271 5264 5258 5252 5245 5239 5233 5227 5223 5220 5218 5215 5214 5214 5214 5216 5215 5216 5215
5442 5437 5432 5427 5422 5416 5409 5402 5395 5388 5380 5371 5362 5352 5342 5332 5321 5310 5298 5286 5274 5262 5253 5245 5237 5230 5225 5220 5217 5213 5208 5204 5201 5198 5195 5193 5192 5192 5193 5195 5195 5197 5198
5430 5425 5420 5414 5407 5400 5394 5387 5379 5371 5363 5354 5344 5334 5323 5312 5301 5290 5279 5269 5260 5251 5241 5231 5221 5213 5206 5199 5193 5188 5184 5182 5180 5177 5175 5173 5173 5174 5176 5178 5179 5180 5182
5418 5412 5406 5399 5392 5385 5378 5370 5362 5354 5345 5335 5324 5313 5302 5291 5280 5271 5262 5252 5243 5234 5225 5216 5208 5200 5192 5185 5178 5172 5167 5163 5160 5158 5156 5155 5155 5156 5158 5160 5162 5165 5167